Туризм
Свали.ру
Погода в мире
ИА "Метеоновости"
Информеры
для сайтов
Туры
поиск и заказ
Авиабилеты
регулярные и чартерные рейсы
 
    На главную   Табло рисков задержки   Авиабилеты   Расписание авиарейсов

Liberal Mid-America Regional Airport    ICAO или ID: KLBL, IATA: LBL
Небольшой аэропорт, регулярные рейсы
добавить в избранное


широта:
долгота:
высота над уровнем моря:
37°3'
-100°58'

879 м
Страна: США (United States)
погода
туры
отели
аэропорты
Риск задержки рейсов из-за погоды
Факт:  
Прогноз:  
 Карта
 




Прогноз погоды на 24 ч. с 18:00 15-10-2018 по 18:00 16-10-2018 UTC
Прогнозируемый риск задержки рейсов из-за погодных условий
 
KLBL на 24ч. с 15/18ч. до 16/18ч., незначительная облачность на 4500 м, ветер переменный 3 м/c, гор. видимость: 9000+, ВНГО: 4500, ночь, день

Исходная телеграмма в коде TAF
KLBL 151723Z 1518/1618 VRB06KT P6SM FEW150

Раскодировка телеграмм производится в автоматическом режиме, в телеграммах могут содержаться ошибки, приводящие к их неправильной интерпретации.

Предупреждение: данные на этом сайте не могут быть использованы для планирования полётов и предоставляются только в информационных целях.
Найти аэропорт
По названию или городу
только регулярные рейсы

Избранные аэропорты
Список пуст



© 2008 Данио-Пресс. Все права защищены.
Использование материалов сайта возможно только с согласия администрации сервера.
По вопросам рекламы и размещения информации обращаться сюда.


 Рейтинг@Mail.ru  Rambler's Top100